| time (UTC) | temp F | wind direction | speed MPH | gust MPH | rain 1hr in | rain 24hr in | rain mn in | humidity % | barometer mb |
| 20260505100704 | 45 | 6 | 3.0 | 6.0 | 0.00 | 0.06 | 0.00 | 84 | 1012.5 |
| 20260505100204 | 46 | 32 | 3.0 | 7.0 | 0.00 | 0.06 | 0.00 | 84 | 1012.5 |
| 20260505095703 | 46 | 23 | 2.0 | 5.0 | 0.00 | 0.06 | 0.00 | 84 | 1012.4 |
| 20260505095203 | 46 | 9 | 3.0 | 6.0 | 0.00 | 0.06 | 0.00 | 84 | 1012.3 |
| 20260505094203 | 46 | 27 | 3.0 | 8.0 | 0.00 | 0.06 | 0.00 | 84 | 1012.4 |
| 20260505093703 | 46 | 44 | 3.0 | 6.0 | 0.00 | 0.06 | 0.00 | 84 | 1012.5 |
| 20260505093203 | 46 | 61 | 3.0 | 7.0 | 0.00 | 0.06 | 0.00 | 84 | 1012.4 |
| 20260505092705 | 46 | 66 | 4.0 | 8.0 | 0.00 | 0.06 | 0.00 | 85 | 1012.5 |
| 20260505091203 | 47 | 33 | 2.0 | 3.0 | 0.00 | 0.06 | 0.00 | 85 | 1012.4 |
| 20260505090703 | 47 | 29 | 3.0 | 6.0 | 0.00 | 0.06 | 0.00 | 85 | 1012.3 |
| 20260505090204 | 47 | 36 | 3.0 | 5.0 | 0.00 | 0.06 | 0.00 | 85 | 1012.4 |
| 20260505085703 | 47 | 25 | 3.0 | 6.0 | 0.00 | 0.06 | 0.00 | 85 | 1012.4 |
| 20260505085204 | 47 | 22 | 3.0 | 5.0 | 0.00 | 0.06 | 0.00 | 85 | 1012.5 |
| 20260505084704 | 47 | 27 | 2.0 | 6.0 | 0.00 | 0.06 | 0.00 | 85 | 1012.6 |
| 20260505084203 | 47 | 73 | 2.0 | 3.0 | 0.00 | 0.06 | 0.00 | 85 | 1012.6 |
| 20260505083703 | 47 | 78 | 2.0 | 3.0 | 0.00 | 0.06 | 0.00 | 85 | 1012.5 |
| 20260505082703 | 47 | 122 | 1.0 | 3.0 | 0.00 | 0.06 | 0.00 | 86 | 1012.6 |
| 20260505082204 | 47 | 122 | 1.0 | 2.0 | 0.00 | 0.06 | 0.00 | 85 | 1012.7 |
| 20260505081703 | 47 | 122 | 0.0 | 2.0 | 0.00 | 0.06 | 0.00 | 86 | 1012.7 |
| 20260505081203 | 47 | 122 | 0.0 | 1.0 | 0.00 | 0.06 | 0.00 | 86 | 1012.6 |
| 20260505080204 | 47 | 122 | 1.0 | 2.0 | 0.00 | 0.06 | 0.00 | 86 | 1012.5 |
| 20260505075704 | 48 | 123 | 2.0 | 3.0 | 0.00 | 0.06 | 0.00 | 86 | 1012.5 |
| 20260505075203 | 48 | 131 | 0.0 | 1.0 | 0.00 | 0.06 | 0.00 | 86 | 1012.6 |
| 20260505074703 | 48 | 131 | 1.0 | 2.0 | 0.00 | 0.06 | 0.00 | 86 | 1012.6 |
| 20260505074204 | 48 | 131 | 1.0 | 3.0 | 0.00 | 0.06 | 0.00 | 86 | 1012.5 |
| 20260505073703 | 48 | 132 | 1.0 | 3.0 | 0.00 | 0.06 | 0.00 | 86 | 1012.9 |
| 20260505073205 | 48 | 132 | 1.0 | 2.0 | 0.00 | 0.06 | 0.00 | 86 | 1012.9 |
| 20260505072704 | 48 | 132 | 2.0 | 3.0 | 0.00 | 0.06 | 0.00 | 86 | 1012.9 |
| 20260505072203 | 48 | 132 | 2.0 | 3.0 | 0.00 | 0.06 | 0.00 | 86 | 1012.9 |
| 20260505071703 | 48 | 131 | 1.0 | 2.0 | 0.00 | 0.06 | 0.00 | 86 | 1013.0 |
| 20260505070703 | 48 | 131 | 1.0 | 3.0 | 0.00 | 0.06 | 0.00 | 86 | 1013.1 |
| 20260505070203 | 48 | 131 | 2.0 | 5.0 | 0.00 | 0.06 | 0.00 | 86 | 1013.0 |
| 20260505065704 | 48 | 134 | 3.0 | 5.0 | 0.00 | 0.06 | 0.00 | 86 | 1013.0 |
| 20260505065204 | 48 | 132 | 3.0 | 5.0 | 0.00 | 0.06 | 0.00 | 86 | 1013.1 |
| 20260505064705 | 48 | 139 | 2.0 | 6.0 | 0.00 | 0.06 | 0.00 | 86 | 1013.1 |
| 20260505064205 | 48 | 135 | 1.0 | 5.0 | 0.00 | 0.06 | 0.00 | 86 | 1013.1 |
| 20260505063203 | 48 | 154 | 1.0 | 3.0 | 0.01 | 0.06 | 0.00 | 86 | 1013.1 |
| 20260505062704 | 48 | 154 | 2.0 | 3.0 | 0.01 | 0.06 | 0.00 | 86 | 1013.1 |
| 20260505062203 | 48 | 154 | 1.0 | 3.0 | 0.01 | 0.06 | 0.00 | 86 | 1013.1 |
| 20260505061704 | 48 | 154 | 1.0 | 5.0 | 0.01 | 0.06 | 0.00 | 86 | 1013.1 |
| 20260505061203 | 48 | 172 | 3.0 | 5.0 | 0.01 | 0.06 | 0.00 | 86 | 1013.2 |
| 20260505060709 | 48 | 158 | 3.0 | 6.0 | 0.01 | 0.06 | 0.00 | 86 | 1013.2 |
| 20260505060203 | 48 | 153 | 3.0 | 5.0 | 0.01 | 0.06 | 0.00 | 86 | 1013.2 |
| 20260505055703 | 48 | 166 | 2.0 | 3.0 | 0.02 | 0.06 | 0.06 | 86 | 1013.2 |
| 20260505055203 | 48 | 167 | 2.0 | 3.0 | 0.02 | 0.06 | 0.06 | 86 | 1013.2 |
| 20260505054703 | 48 | 168 | 2.0 | 3.0 | 0.02 | 0.06 | 0.06 | 86 | 1013.1 |
| 20260505053703 | 48 | 199 | 1.0 | 3.0 | 0.02 | 0.06 | 0.06 | 85 | 1013.0 |
| 20260505053204 | 48 | 200 | 2.0 | 3.0 | 0.01 | 0.05 | 0.05 | 85 | 1013.1 |
| 20260505052704 | 48 | 212 | 2.0 | 3.0 | 0.01 | 0.05 | 0.05 | 85 | 1013.2 |
| 20260505051703 | 48 | 230 | 2.0 | 3.0 | 0.01 | 0.05 | 0.05 | 85 | 1013.3 |
| 20260505050703 | 48 | 235 | 2.0 | 3.0 | 0.02 | 0.05 | 0.05 | 85 | 1013.4 |
| 20260505050204 | 48 | 235 | 0.0 | 1.0 | 0.02 | 0.05 | 0.05 | 85 | 1013.4 |
| 20260505041703 | 48 | 327 | 2.0 | 9.0 | 0.03 | 0.03 | 0.03 | 83 | 1013.6 |
| 20260505041204 | 48 | 305 | 4.0 | 10.0 | 0.02 | 0.02 | 0.02 | 82 | 1013.6 |
| 20260505040704 | 48 | 302 | 3.0 | 12.0 | 0.02 | 0.02 | 0.02 | 81 | 1013.5 |
| 20260505040203 | 49 | 320 | 3.0 | 7.0 | 0.02 | 0.02 | 0.02 | 79 | 1013.4 |
| 20260505035703 | 50 | 269 | 2.0 | 12.0 | 0.01 | 0.01 | 0.01 | 76 | 1013.3 |
| 20260505034704 | 52 | 310 | 3.0 | 10.0 | 0.00 | 0.00 | 0.00 | 68 | 1013.1 |
| 20260505033704 | 53 | 314 | 2.0 | 8.0 | 0.00 | 0.00 | 0.00 | 65 | 1013.1 |
| 20260505032703 | 53 | 319 | 3.0 | 8.0 | 0.00 | 0.00 | 0.00 | 65 | 1012.8 |
| 20260505032204 | 53 | 332 | 1.0 | 3.0 | 0.00 | 0.00 | 0.00 | 64 | 1012.7 |
| 20260505031704 | 53 | 332 | 0.0 | 1.0 | 0.00 | 0.00 | 0.00 | 64 | 1012.5 |
| 20260505031203 | 53 | 332 | 0.0 | 3.0 | 0.00 | 0.00 | 0.00 | 64 | 1012.5 |
| 20260505030203 | 53 | 356 | 1.0 | 3.0 | 0.00 | 0.00 | 0.00 | 64 | 1012.3 |
| 20260505025704 | 53 | 356 | 2.0 | 6.0 | 0.00 | 0.00 | 0.00 | 64 | 1012.2 |
| 20260505025205 | 53 | 352 | 2.0 | 6.0 | 0.00 | 0.00 | 0.00 | 64 | 1012.1 |
| 20260505024703 | 53 | 26 | 1.0 | 3.0 | 0.00 | 0.00 | 0.00 | 64 | 1012.0 |
| 20260505024204 | 53 | 29 | 2.0 | 3.0 | 0.00 | 0.00 | 0.00 | 64 | 1011.9 |
| 20260505023704 | 53 | 29 | 2.0 | 3.0 | 0.00 | 0.00 | 0.00 | 64 | 1011.9 |
| 20260505023204 | 53 | 25 | 0.0 | 2.0 | 0.00 | 0.00 | 0.00 | 64 | 1012.0 |
| 20260505022703 | 53 | 25 | 2.0 | 5.0 | 0.00 | 0.00 | 0.00 | 63 | 1012.0 |
| 20260505022204 | 53 | 28 | 1.0 | 3.0 | 0.00 | 0.00 | 0.00 | 63 | 1012.0 |
| 20260505021704 | 53 | 34 | 2.0 | 6.0 | 0.00 | 0.00 | 0.00 | 63 | 1011.8 |
| 20260505021203 | 53 | 10 | 1.0 | 3.0 | 0.00 | 0.00 | 0.00 | 63 | 1011.9 |
| 20260505020703 | 53 | 10 | 1.0 | 7.0 | 0.00 | 0.00 | 0.00 | 62 | 1012.0 |
| 20260505020204 | 53 | 34 | 2.0 | 7.0 | 0.00 | 0.00 | 0.00 | 62 | 1012.0 |
| 20260505015705 | 54 | 20 | 4.0 | 7.0 | 0.00 | 0.00 | 0.00 | 60 | 1011.8 |
| 20260505015203 | 54 | 15 | 5.0 | 9.0 | 0.00 | 0.00 | 0.00 | 59 | 1011.7 |
| 20260505014704 | 54 | 19 | 4.0 | 8.0 | 0.00 | 0.00 | 0.00 | 58 | 1011.5 |
| 20260505014204 | 54 | 22 | 2.0 | 3.0 | 0.00 | 0.00 | 0.00 | 59 | 1011.3 |
| 20260505013703 | 54 | 23 | 1.0 | 3.0 | 0.00 | 0.00 | 0.00 | 60 | 1011.3 |
| 20260505013203 | 54 | 23 | 2.0 | 6.0 | 0.00 | 0.00 | 0.00 | 60 | 1011.3 |
| 20260505012703 | 53 | 6 | 3.0 | 6.0 | 0.00 | 0.00 | 0.00 | 62 | 1011.3 |
| 20260505012203 | 53 | 32 | 3.0 | 6.0 | 0.00 | 0.00 | 0.00 | 63 | 1011.4 |
| 20260505011704 | 53 | 6 | 3.0 | 7.0 | 0.00 | 0.00 | 0.00 | 63 | 1011.5 |
| 20260505010704 | 53 | 331 | 5.0 | 12.0 | 0.00 | 0.00 | 0.00 | 62 | 1011.4 |
| 20260505010203 | 54 | 315 | 8.0 | 16.0 | 0.00 | 0.00 | 0.00 | 59 | 1011.6 |
| 20260505004704 | 56 | 322 | 6.0 | 17.0 | 0.00 | 0.00 | 0.00 | 53 | 1011.4 |
| 20260505004204 | 57 | 333 | 6.0 | 12.0 | 0.00 | 0.00 | 0.00 | 53 | 1011.4 |
| 20260505003703 | 58 | 355 | 8.0 | 13.0 | 0.00 | 0.00 | 0.00 | 45 | 1011.3 |
| 20260505002703 | 58 | 315 | 10.0 | 21.0 | 0.00 | 0.00 | 0.00 | 45 | 1011.2 |
| 20260505001704 | 58 | 354 | 4.0 | 8.0 | 0.00 | 0.00 | 0.00 | 45 | 1011.0 |
| 20260505000704 | 59 | 336 | 6.0 | 12.0 | 0.00 | 0.00 | 0.00 | 43 | 1010.8 |
| 20260505000204 | 59 | 298 | 4.0 | 12.0 | 0.00 | 0.00 | 0.00 | 43 | 1010.7 |
| 20260504235704 | 59 | 257 | 3.0 | 10.0 | 0.00 | 0.00 | 0.00 | 40 | 1010.7 |
| 20260504235204 | 60 | 332 | 9.0 | 25.0 | 0.00 | 0.00 | 0.00 | 40 | 1010.7 |
| 20260504234703 | 61 | 317 | 10.0 | 20.0 | 0.00 | 0.00 | 0.00 | 39 | 1010.5 |
| 20260504234203 | 62 | 319 | 7.0 | 17.0 | 0.00 | 0.00 | 0.00 | 36 | 1010.5 |
| 20260504233705 | 62 | 356 | 8.0 | 15.0 | 0.00 | 0.00 | 0.00 | 32 | 1010.3 |
| 20260504233204 | 62 | 5 | 6.0 | 15.0 | 0.00 | 0.00 | 0.00 | 31 | 1010.2 |
| 20260504232704 | 62 | 10 | 9.0 | 18.0 | 0.00 | 0.00 | 0.00 | 31 | 1010.1 |
| 20260504232204 | 63 | 352 | 7.0 | 13.0 | 0.00 | 0.00 | 0.00 | 31 | 1010.1 |
| 20260504231704 | 63 | 346 | 9.0 | 17.0 | 0.00 | 0.00 | 0.00 | 31 | 1010.2 |
| 20260504231204 | 63 | 355 | 8.0 | 16.0 | 0.00 | 0.00 | 0.00 | 30 | 1010.0 |
| 20260504230704 | 63 | 348 | 7.0 | 17.0 | 0.00 | 0.00 | 0.00 | 30 | 1010.0 |
| 20260504230203 | 63 | 352 | 6.0 | 18.0 | 0.00 | 0.00 | 0.00 | 30 | 1009.9 |
| 20260504225704 | 64 | 320 | 8.0 | 18.0 | 0.00 | 0.00 | 0.00 | 30 | 1009.8 |
| 20260504225204 | 64 | 11 | 7.0 | 22.0 | 0.00 | 0.00 | 0.00 | 29 | 1009.8 |
| 20260504224704 | 64 | 307 | 12.0 | 21.0 | 0.00 | 0.00 | 0.00 | 29 | 1009.6 |
| 20260504224203 | 64 | 327 | 9.0 | 16.0 | 0.00 | 0.00 | 0.00 | 29 | 1009.8 |
| 20260504223703 | 64 | 330 | 6.0 | 13.0 | 0.00 | 0.00 | 0.00 | 29 | 1009.6 |
| 20260504223205 | 64 | 357 | 9.0 | 18.0 | 0.00 | 0.00 | 0.00 | 29 | 1009.8 |
| 20260504222704 | 64 | 334 | 10.0 | 20.0 | 0.00 | 0.00 | 0.00 | 29 | 1009.7 |
| 20260504221704 | 64 | 8 | 8.0 | 17.0 | 0.00 | 0.00 | 0.00 | 28 | 1009.7 |
| 20260504221203 | 64 | 2 | 11.0 | 21.0 | 0.00 | 0.00 | 0.00 | 28 | 1009.6 |
| 20260504220703 | 65 | 332 | 7.0 | 20.0 | 0.00 | 0.00 | 0.00 | 27 | 1009.4 |
| 20260504220204 | 66 | 0 | 9.0 | 18.0 | 0.00 | 0.00 | 0.00 | 25 | 1009.2 |
| 20260504215704 | 66 | 349 | 5.0 | 12.0 | 0.00 | 0.00 | 0.00 | 22 | 1009.0 |
| 20260504215205 | 67 | 354 | 6.0 | 12.0 | 0.00 | 0.00 | 0.00 | 22 | 1009.1 |
| 20260504214704 | 67 | 1 | 7.0 | 17.0 | 0.00 | 0.00 | 0.00 | 22 | 1009.1 |
| 20260504214204 | 68 | 317 | 7.0 | 15.0 | 0.00 | 0.00 | 0.00 | 21 | 1009.2 |
| 20260504213704 | 68 | 334 | 3.0 | 8.0 | 0.00 | 0.00 | 0.00 | 20 | 1009.2 |
| 20260504213204 | 68 | 9 | 5.0 | 13.0 | 0.00 | 0.00 | 0.00 | 20 | 1009.3 |
| 20260504212704 | 69 | 325 | 6.0 | 15.0 | 0.00 | 0.00 | 0.00 | 20 | 1009.4 |
| 20260504212204 | 69 | 318 | 5.0 | 12.0 | 0.00 | 0.00 | 0.00 | 21 | 1009.4 |
| 20260504211703 | 69 | 301 | 8.0 | 20.0 | 0.00 | 0.00 | 0.00 | 20 | 1009.5 |
| 20260504210705 | 70 | 326 | 9.0 | 20.0 | 0.00 | 0.00 | 0.00 | 20 | 1009.5 |
| 20260504210207 | 69 | 311 | 5.0 | 14.0 | 0.00 | 0.00 | 0.00 | 20 | 1009.6 |
| 20260504205204 | 68 | 305 | 6.0 | 15.0 | 0.00 | 0.00 | 0.00 | 21 | 1009.7 |
| 20260504204704 | 69 | 305 | 7.0 | 16.0 | 0.00 | 0.00 | 0.00 | 20 | 1009.7 |
| 20260504204205 | 69 | 339 | 5.0 | 14.0 | 0.00 | 0.00 | 0.00 | 20 | 1009.8 |
| 20260504203703 | 70 | 265 | 3.0 | 9.0 | 0.00 | 0.00 | 0.00 | 21 | 1009.8 |
| 20260504203203 | 70 | 319 | 5.0 | 13.0 | 0.00 | 0.00 | 0.00 | 22 | 1009.8 |
| 20260504202704 | 69 | 312 | 4.0 | 14.0 | 0.00 | 0.00 | 0.00 | 22 | 1009.8 |
| 20260504202203 | 68 | 313 | 9.0 | 18.0 | 0.00 | 0.00 | 0.00 | 22 | 1009.9 |
| 20260504201704 | 68 | 304 | 5.0 | 15.0 | 0.00 | 0.00 | 0.00 | 22 | 1009.8 |
| 20260504201204 | 68 | 255 | 4.0 | 10.0 | 0.00 | 0.00 | 0.00 | 21 | 1009.8 |
| 20260504200704 | 69 | 310 | 4.0 | 10.0 | 0.00 | 0.00 | 0.00 | 22 | 1009.9 |
| 20260504200204 | 68 | 316 | 4.0 | 10.0 | 0.00 | 0.00 | 0.00 | 21 | 1009.8 |
| 20260504195204 | 69 | 308 | 7.0 | 12.0 | 0.00 | 0.00 | 0.00 | 18 | 1009.9 |
| 20260504194204 | 70 | 299 | 5.0 | 14.0 | 0.00 | 0.00 | 0.00 | 18 | 1009.9 |
| 20260504193704 | 70 | 267 | 2.0 | 3.0 | 0.00 | 0.00 | 0.00 | 18 | 1009.9 |
| 20260504193204 | 70 | 348 | 3.0 | 8.0 | 0.00 | 0.00 | 0.00 | 18 | 1010.0 |
| 20260504192705 | 70 | 328 | 5.0 | 20.0 | 0.00 | 0.00 | 0.00 | 18 | 1010.0 |
| 20260504190704 | 70 | 170 | 10.0 | 18.0 | 0.00 | 0.00 | 0.00 | 18 | 1010.4 |
| 20260504190204 | 70 | 160 | 5.0 | 13.0 | 0.00 | 0.00 | 0.00 | 18 | 1010.4 |
| 20260504185704 | 70 | 249 | 3.0 | 9.0 | 0.00 | 0.00 | 0.00 | 18 | 1010.3 |
| 20260504185204 | 70 | 204 | 2.0 | 7.0 | 0.00 | 0.00 | 0.00 | 18 | 1010.1 |
| 20260504184704 | 70 | 14 | 3.0 | 6.0 | 0.00 | 0.00 | 0.00 | 18 | 1010.0 |
| 20260504183704 | 70 | 337 | 2.0 | 5.0 | 0.00 | 0.00 | 0.00 | 18 | 1009.9 |
| 20260504183204 | 70 | 312 | 2.0 | 9.0 | 0.00 | 0.00 | 0.00 | 18 | 1009.9 |
| 20260504182704 | 70 | 305 | 1.0 | 6.0 | 0.00 | 0.00 | 0.00 | 18 | 1010.0 |
| 20260504181704 | 70 | 324 | 6.0 | 10.0 | 0.00 | 0.00 | 0.00 | 18 | 1009.9 |
| 20260504181205 | 70 | 315 | 3.0 | 9.0 | 0.00 | 0.00 | 0.00 | 18 | 1010.0 |
| 20260504180704 | 70 | 291 | 5.0 | 12.0 | 0.00 | 0.00 | 0.00 | 18 | 1010.0 |
| 20260504180205 | 70 | 1 | 5.0 | 12.0 | 0.00 | 0.00 | 0.00 | 18 | 1010.0 |
| 20260504174704 | 72 | 314 | 5.0 | 12.0 | 0.00 | 0.00 | 0.00 | 19 | 1010.2 |
| 20260504174204 | 72 | 7 | 3.0 | 12.0 | 0.00 | 0.00 | 0.00 | 18 | 1010.2 |
| 20260504172704 | 72 | 318 | 7.0 | 14.0 | 0.00 | 0.00 | 0.00 | 18 | 1010.4 |
| 20260504172204 | 72 | 310 | 5.0 | 14.0 | 0.00 | 0.00 | 0.00 | 19 | 1010.4 |
| 20260504171204 | 70 | 239 | 5.0 | 12.0 | 0.00 | 0.00 | 0.00 | 18 | 1010.5 |
| 20260504170205 | 71 | 288 | 2.0 | 8.0 | 0.00 | 0.00 | 0.00 | 19 | 1010.6 |
| 20260504160204 | 68 | 293 | 4.0 | 10.0 | 0.00 | 0.00 | 0.00 | 20 | 1011.1 |
| 20260504150204 | 63 | 215 | 6.0 | 12.0 | 0.00 | 0.00 | 0.00 | 25 | 1011.6 |
| 20260504141204 | 57 | 200 | 4.0 | 6.0 | 0.00 | 0.00 | 0.00 | 33 | 1011.5 |
| 20260504140704 | 57 | 215 | 4.0 | 7.0 | 0.00 | 0.00 | 0.00 | 33 | 1011.5 |
| 20260504140204 | 57 | 216 | 5.0 | 10.0 | 0.00 | 0.00 | 0.00 | 33 | 1011.6 |
| 20260504130704 | 51 | 158 | 5.0 | 7.0 | 0.00 | 0.00 | 0.00 | 41 | 1011.2 |
| 20260504130205 | 50 | 179 | 5.0 | 12.0 | 0.00 | 0.00 | 0.00 | 42 | 1011.2 |
| 20260504120203 | 47 | 165 | 4.0 | 6.0 | 0.00 | 0.00 | 0.00 | 48 | 1011.1 |
| 20260504110704 | 47 | 160 | 2.0 | 3.0 | 0.00 | 0.00 | 0.00 | 49 | 1011.3 |
| 20260504110203 | 47 | 160 | 2.0 | 3.0 | 0.00 | 0.00 | 0.00 | 49 | 1011.3 |